Location: Newport
(44.6370°N, 124.0520°W)
Time: 22:18:55
(UTC-07:00)

Vanguard 2 - All Passes

Search period start: 19 October 2017 00:00
Search period end: 29 October 2017 00:00
Orbit: 554 x 2939 km, 32.9° (Epoch: 19 October)

Date Brightness Start Highest point End Pass type
(mag) Time Alt. Az. Time Alt. Az. Time Alt. Az.
19 Oct - 07:35:33 10° S 07:45:27 20° SSE 07:53:19 10° ESE daylight
19 Oct - 09:43:21 10° SW 09:55:17 34° SSE 10:03:14 10° ESE daylight
19 Oct - 11:54:29 10° WSW 12:04:25 38° S 12:10:42 10° ESE daylight
19 Oct - 14:06:30 10° WSW 14:12:17 22° SSW 14:16:30 10° SSE daylight
20 Oct - 07:51:40 10° SSW 08:03:27 26° SSE 08:12:21 10° ESE daylight
20 Oct - 10:00:54 10° SW 10:13:19 39° S 10:21:23 10° ESE daylight
20 Oct - 12:12:36 10° WSW 12:22:21 37° SSW 12:28:33 10° SE daylight
20 Oct - 14:25:10 10° WSW 14:29:56 17° SSW 14:33:37 10° S daylight
21 Oct - 06:03:59 10° S 06:11:23 14° SE 06:18:02 10° ESE visible
21 Oct - 08:08:22 10° SSW 08:21:27 31° SSE 08:30:58 10° ESE daylight
21 Oct - 10:18:41 10° WSW 10:31:21 42° S 10:39:27 10° ESE daylight
21 Oct - 12:30:48 10° WSW 12:40:12 34° SSW 12:46:16 10° SE daylight
21 Oct - 14:44:23 10° WSW 14:47:28 13° SW 14:50:05 10° SSW daylight
22 Oct - 06:18:36 10° S 06:29:16 20° SSE 06:38:19 10° ESE visible
22 Oct - 08:25:30 10° SW 08:39:29 37° SSE 08:49:20 10° ESE daylight
22 Oct - 10:36:38 10° WSW 10:49:22 44° S 10:57:25 10° ESE daylight
22 Oct - 12:49:07 10° W 12:58:00 31° SSW 13:03:52 10° SE daylight
23 Oct - 06:34:27 10° SSW 06:47:09 26° SSE 06:57:33 10° ESE visible
23 Oct - 08:42:56 10° SW 08:57:31 41° SSE 09:07:33 10° ESE daylight
23 Oct - 10:54:42 10° WSW 11:07:21 44° S 11:15:19 10° ESE daylight
23 Oct - 13:07:33 10° W 13:15:41 26° SSW 13:21:16 10° SSE daylight
24 Oct - 04:48:38 10° SSE 04:55:01 13° SE 05:01:06 10° ESE visible
24 Oct - 06:50:57 10° SSW 07:05:04 32° SSE 07:16:18 10° E visible
24 Oct - 09:00:37 10° WSW 09:15:34 45° S 09:25:38 10° ESE daylight
24 Oct - 11:12:52 10° WSW 11:25:17 42° SSW 11:33:07 10° SE daylight
24 Oct - 13:26:13 10° W 13:33:16 21° SW 13:38:23 10° SSE daylight
25 Oct - 05:02:27 10° S 05:12:44 19° SE 05:22:13 10° ESE visible
25 Oct - 07:07:54 10° SW 07:23:01 37° SSE 07:34:46 10° E visible
25 Oct - 09:18:29 10° WSW 09:33:36 48° S 09:43:40 10° ESE daylight
25 Oct - 11:31:07 10° W 11:43:08 39° SSW 11:50:49 10° SE daylight
25 Oct - 13:45:16 10° WSW 13:50:44 16° SW 13:55:01 10° S daylight
26 Oct - 05:17:55 10° S 05:30:28 24° SE 05:41:50 10° E visible
26 Oct - 07:25:12 10° SW 07:41:00 42° SSE 07:53:04 10° E daylight
26 Oct - 09:36:29 10° WSW 09:51:37 49° S 10:01:37 10° ESE daylight
26 Oct - 11:49:28 10° W 12:00:54 35° SSW 12:08:22 10° SE daylight
26 Oct - 14:05:30 10° WSW 14:08:07 11° SW 14:10:26 10° SSW daylight
27 Oct - 03:36:40 10° SE 03:38:36 10° SE 03:40:31 10° SE visible
27 Oct - 05:34:11 10° SSW 05:48:15 30° SSE 06:00:48 10° E visible
27 Oct - 07:42:46 10° SW 07:59:01 47° SSE 08:11:14 10° E daylight
27 Oct - 09:54:36 10° WSW 10:09:36 49° S 10:19:30 10° ESE daylight
27 Oct - 12:07:56 10° W 12:18:33 30° SSW 12:25:44 10° SSE daylight
28 Oct - 03:47:31 10° SSE 03:56:07 16° SE 04:04:41 10° ESE visible
28 Oct - 05:50:58 10° SSW 06:06:04 36° SSE 06:19:24 10° E visible
28 Oct - 08:00:31 10° WSW 08:17:04 50° S 08:29:19 10° ESE daylight
28 Oct - 10:12:48 10° W 10:27:32 46° SSW 10:37:17 10° SE daylight
28 Oct - 12:26:37 10° W 12:36:05 25° SW 12:42:48 10° SSE daylight
